Voltar ao catálogo

STARLINK-3948

AtivoComunicaçõesVLEO
NORAD 52546·PAYLOAD·🇺🇸 United States

Lançado May 13, 2022 de Vandenberg Space Force Base

Loading…

Próximas Passagens (próximas 24 horas)

TLE

AtualizadoSource: CelesTrak SupGP

Época: Sep 15, 2026, 01:55 UTC

1 52546C 22051P   26258.08034722  .00046832  00000+0  13835-2 0  2583
2 52546  53.1587 343.0869 0001209  91.8276 289.8021 15.34370119    16

Acompanhe STARLINK-3948 em tempo real com AllMySat

Download on the App Store